If you wish to contribute or participate in the discussions about articles you are invited to join SKYbrary as a registered user

 Actions

Comodoro Rivadavia/General Enrique Mosconi International Airport

From SKYbrary Wiki

SAVC
Airport
ICAO: SAVC – IATA: CRD
Summary
Name Comodoro Rivadavia/General Enrique Mosconi International Airport
Region South America and Caribbean
Territory Argentina AR.gif
Location Comodoro Rivadavia, Chubut
Serving Comodoro Rivadavia
Elevation 57.912 m
190 ft
190 ft57.912 m
Coordinates 45° 47' 11.53" S, 67° 27' 57.09" W
Runways
Designator Length Width Surface ROPS
7/25 2810 m9,219.16 ft
50 m164.042 ft
CON /


METAR
Observation SAVC 201200Z 29020G32KT 240V330 CAVOK 15/M01 Q1010
Station Comodoro Rivadavia Aerodrome
Date/Time 20 November 2019 12:00:00
Wind direction 290°
Wind speed 20 kts
Lowest cloud amount clouds and visibility OK
Temperature 15°C
Dew point
Humidity 33%
QNH 1010 hPa
Weather condition n/a

General Enrique Mosconi International Airport is an international airport in the Chubut Province, Argentina serving Comodoro Rivadavia. The airfield is located 11 km5.94 nm
11,000 m
36,089.239 ft
of the city.

Maps

Terrain

Loading map...

Airport Layout

Loading map...


Accidents & Serious Incidents at or in vicinity of SAVC

None on SKYbrary